Tracking 30743 objects as of 21-Jun-2025
HD Live streaming from Space Station
objects crossing your sky now

STARLINK-31164

Track STARLINK-31164 now!
10-day predictions
STARLINK-31164 is classified as:


NORAD ID: 58733
Int'l Code: 2024-005F
Perigee: 565.2 km
Apogee: 567.3 km
Inclination: 43.0 °
Period: 95.8 minutes
Semi major axis: 6937 km
RCS: Unknown
Launch date: January 7, 2024
Source: United States (US)
Launch site: AIR FORCE EASTERN TEST RANGE (AFETR)
Your satellite tracking list
Your tracking list is empty




NASA's NSSDC Master Catalog

Two Line Element Set (TLE):
1 58733U 24005F   25171.81338042  .00000465  00000-0  49462-4 0  9996
2 58733  43.0021 205.0116 0001489 271.2730  88.7941 15.02536296 81013
Source of the keplerian elements: AFSPC